| time (UTC) | temp C | wind direction | speed KPH | gust KPH | rain 1hr cm | rain 24hr cm | rain mn cm | humidity % | barometer mb |
| 20260506233119 | 7 | 234 | 0.0 | 0.0 | 0.00 | 1.47 | 0.00 | 96 | 1011.2 |
| 20260506231611 | 7 | 234 | 0.0 | 0.0 | 0.00 | 1.47 | 0.00 | 96 | 1011.3 |
| 20260506224620 | 8 | 234 | 0.0 | 0.0 | 0.00 | 1.47 | 0.00 | 96 | 1011.4 |
| 20260506223110 | 8 | 234 | 0.0 | 0.0 | 0.00 | 1.47 | 0.00 | 96 | 1011.5 |
| 20260506220143 | 8 | 234 | 0.0 | 0.0 | 0.00 | 1.47 | 0.00 | 95 | 1011.3 |
| 20260506214612 | 8 | 234 | 0.0 | 0.0 | 0.00 | 1.47 | 1.47 | 95 | 1011.3 |
| 20260506211612 | 9 | 234 | 0.0 | 3.2 | 0.00 | 1.47 | 1.47 | 95 | 1011.5 |
| 20260506204616 | 9 | 234 | 0.0 | 1.6 | 0.00 | 1.47 | 1.47 | 95 | 1011.3 |
| 20260506201622 | 10 | 234 | 1.6 | 3.2 | 0.00 | 1.47 | 1.47 | 95 | 1011.1 |
| 20260506194621 | 9 | 234 | 0.0 | 0.0 | 0.05 | 1.47 | 1.47 | 95 | 1010.9 |
| 20260506191623 | 10 | 234 | 0.0 | 3.2 | 0.05 | 1.47 | 1.47 | 95 | 1010.5 |
| 20260506190110 | 10 | 236 | 8.0 | 12.9 | 0.03 | 1.45 | 1.45 | 95 | 1010.5 |
| 20260506183115 | 10 | 248 | 0.0 | 0.0 | 0.00 | 1.45 | 1.42 | 94 | 1010.1 |
| 20260506180117 | 10 | 248 | 0.0 | 0.0 | 0.00 | 1.45 | 1.42 | 93 | 1010.0 |
| 20260506174615 | 10 | 248 | 0.0 | 1.6 | 0.00 | 1.45 | 1.42 | 93 | 1009.9 |
| 20260506171619 | 11 | 248 | 0.0 | 4.8 | 0.00 | 1.45 | 1.42 | 92 | 1009.7 |
| 20260506164621 | 11 | 248 | 0.0 | 3.2 | 0.00 | 1.47 | 1.42 | 92 | 1009.6 |
| 20260506163117 | 11 | 248 | 0.0 | 8.0 | 0.00 | 1.47 | 1.42 | 91 | 1009.3 |
| 20260506160122 | 11 | 271 | 0.0 | 4.8 | 0.00 | 1.47 | 1.42 | 92 | 1009.6 |
| 20260506153121 | 11 | 271 | 0.0 | 4.8 | 0.00 | 1.47 | 1.42 | 91 | 1009.7 |
| 20260506151619 | 11 | 292 | 0.0 | 4.8 | 0.03 | 1.47 | 1.42 | 94 | 1009.4 |
| 20260506144619 | 11 | 290 | 0.0 | 4.8 | 0.33 | 1.47 | 1.42 | 93 | 1009.6 |
| 20260506143117 | 10 | 232 | 0.0 | 3.2 | 0.33 | 1.47 | 1.42 | 94 | 1009.7 |
| 20260506141614 | 10 | 229 | 0.0 | 3.2 | 0.30 | 1.47 | 1.40 | 96 | 1009.7 |
| 20260506140113 | 9 | 240 | 3.2 | 8.0 | 0.25 | 1.37 | 1.27 | 95 | 1010.0 |
| 20260506133141 | 10 | 233 | 1.6 | 6.4 | 0.10 | 1.22 | 1.09 | 95 | 1009.8 |
| 20260506131617 | 10 | 231 | 0.0 | 3.2 | 0.15 | 1.22 | 1.09 | 95 | 1010.2 |
| 20260506124615 | 10 | 231 | 1.6 | 6.4 | 0.10 | 1.22 | 1.02 | 95 | 1010.3 |
| 20260506123111 | 10 | 279 | 0.0 | 8.0 | 0.13 | 1.19 | 0.99 | 95 | 1010.1 |
| 20260506120123 | 10 | 259 | 1.6 | 9.7 | 0.15 | 1.12 | 0.91 | 95 | 1009.8 |
| 20260506114621 | 10 | 229 | 0.0 | 0.0 | 0.23 | 1.12 | 0.91 | 94 | 1010.1 |
| 20260506113119 | 10 | 258 | 0.0 | 0.0 | 0.23 | 1.09 | 0.89 | 94 | 1010.2 |
| 20260506110117 | 10 | 242 | 0.0 | 0.0 | 0.13 | 0.99 | 0.79 | 94 | 1010.7 |
| 20260506104614 | 10 | 225 | 0.0 | 0.0 | 0.00 | 1.19 | 0.66 | 94 | 1010.7 |
| 20260506103110 | 10 | 211 | 0.0 | 0.0 | 0.03 | 1.19 | 0.66 | 94 | 1010.9 |
| 20260506100117 | 9 | 229 | 0.0 | 0.0 | 0.03 | 1.19 | 0.66 | 93 | 1011.0 |
| 20260506093119 | 9 | 229 | 0.0 | 0.0 | 0.00 | 1.45 | 0.64 | 92 | 1011.0 |
| 20260506090120 | 9 | 209 | 0.0 | 0.0 | 0.00 | 1.45 | 0.64 | 94 | 1011.0 |
| 20260506083116 | 8 | 207 | 0.0 | 0.0 | 0.05 | 1.47 | 0.64 | 95 | 1010.9 |
| 20260506080119 | 9 | 228 | 0.0 | 0.0 | 0.08 | 1.47 | 0.64 | 96 | 1010.7 |
| 20260506073118 | 8 | 228 | 0.0 | 0.0 | 0.15 | 1.45 | 0.61 | 96 | 1010.9 |
| 20260506071616 | 8 | 228 | 0.0 | 0.0 | 0.23 | 1.42 | 0.58 | 96 | 1010.9 |
| 20260506060121 | 8 | 228 | 0.0 | 0.0 | 0.23 | 1.09 | 0.23 | 96 | 1011.2 |
| 20260506050115 | 7 | 228 | 0.0 | 0.0 | 0.00 | 0.84 | 0.00 | 96 | 1010.6 |
| 20260506043114 | 7 | 228 | 0.0 | 0.0 | 0.00 | 0.84 | 0.00 | 96 | 1010.5 |
| 20260506041628 | 7 | 228 | 0.0 | 0.0 | 0.00 | 0.84 | 0.00 | 96 | 1010.3 |
| 20260506034619 | 7 | 228 | 0.0 | 0.0 | 0.00 | 0.84 | 0.00 | 96 | 1010.9 |
| 20260506031619 | 7 | 228 | 0.0 | 0.0 | 0.00 | 0.84 | 0.00 | 96 | 1011.4 |
| 20260506030116 | 7 | 228 | 0.0 | 0.0 | 0.00 | 0.84 | 0.00 | 96 | 1011.5 |
| 20260506024615 | 7 | 228 | 0.0 | 0.0 | 0.00 | 0.84 | 0.00 | 96 | 1011.6 |
| 20260506021612 | 7 | 228 | 0.0 | 0.0 | 0.00 | 0.84 | 0.00 | 96 | 1011.6 |
| 20260506014620 | 8 | 228 | 0.0 | 0.0 | 0.00 | 0.84 | 0.00 | 96 | 1011.7 |
| 20260506011618 | 8 | 228 | 0.0 | 0.0 | 0.00 | 0.84 | 0.00 | 96 | 1012.2 |
| 20260506010117 | 8 | 228 | 0.0 | 0.0 | 0.00 | 0.84 | 0.00 | 96 | 1012.3 |
| 20260506003115 | 8 | 228 | 0.0 | 0.0 | 0.00 | 0.84 | 0.00 | 96 | 1012.4 |
| 20260506001611 | 8 | 228 | 0.0 | 0.0 | 0.00 | 0.84 | 0.00 | 96 | 1012.5 |
| 20260505234615 | 8 | 228 | 0.0 | 0.0 | 0.00 | 0.84 | 0.00 | 96 | 1012.4 |